Location: Amsterdam
(30.7274°N, 84.4357°W)
Time: 21:50:48
(UTC+00:00)

Tiros 1 despin weight - Pass Details

Date: 21 February 2026
Orbit: 556 x 593 km, 48.2° (Epoch: 7 March)

Event Time Altitude Azimuth Distance (km) Brightness Sun altitude
Rises 16:56:22 0° 194° (SSW) 2,761 ? 46.8°
Reaches altitude 10° 16:59:08 10° 176° (S) 1,859 ? 47.0°
Maximum altitude 17:02:11 19° 130° (SE) 1,355 ? 47.2°
Drops below altitude 10° 17:05:14 10° 84° (E) 1,850 ? 47.4°
Sets 17:07:58 0° 67° (ENE) 2,742 ? 47.6°
